Powrót do katalogu

COSMOS 2251 DEB

AktywnyLEO
NORAD 34976·DEBRIS·🇷🇺 Russia

Wystrzelony Jun 16, 1993 z Plesetsk Cosmodrome

Loading…

Następne Przeloty (najbliższe 24 godziny)

TLE

ŚwieżeSource: Space-Track

Epoka: Sep 14, 2026, 15:15 UTC

1 34976U 93036AFF 26257.63555796  .00004702  00000-0  61104-3 0  9996
2 34976  74.0541 124.4230 0043374 102.0898 289.9757 14.80326059923523

Śledź COSMOS 2251 DEB w czasie rzeczywistym z AllMySat

Download on the App Store